Regional Weather Roundup
Issued by NWS

Home | Current Version | Previous Version | Graphics & Text | Print | Product List | Glossary On
Versions: 1 2 3 4 5 6 7 8 9 10 11 12 13 14 15 16 17 18 19 20 21 22 23 24 25 26 27 28 29 30 31 32 33 34 35 36 37 38 39 40 41 42 43 44 45 46 47 48 49 50
000
ASUS43 KMPX 301410
RWRMN
WEATHER ROUNDUP FOR MINNESOTA
NATIONAL WEATHER SERVICE TWIN CITIES/CHANHASSEN MN
900 AM CDT SAT APR 30 2016


NOTE: "FAIR" INDICATES FEW OR NO CLOUDS BELOW 12,000 FEET WITH NO
SIGNIFICANT WEATHER AND/OR OBSTRUCTIONS TO VISIBILITY. N/A MEANS
CURRENT SKY AND/OR WEATHER CONDITIONS ARE NOT AVAILABLE.

MNZ060>063-068>070-301500-
   Twin Cities Metro

CITY           SKY/WX    TMP DP  RH WIND       PRES   REMARKS
TWIN CITIES    CLOUDY    47  33  58 NE12      30.09S
ST PAUL        CLOUDY    46  33  60 NE10      30.10F
CRYSTAL        CLOUDY    46  34  62 NE9       30.09S
BLAINE         PTSUNNY   45  36  70 NE12      30.11R
EDEN PRAIRIE   CLOUDY    48  34  58 NE13G22   30.06F
SOUTH ST PAUL  CLOUDY    46  33  62 E9        30.09F
LAKE ELMO      FAIR      45  36  70 NE12      30.11S
$$
MNZ001>005-007-008-013>017-022>024-027-028-301500-
   Northwest Minnesota

CITY           SKY/WX    TMP DP  RH WIND       PRES   REMARKS
BEMIDJI        SUNNY     44  32  62 E10       30.25S
HALLOCK        SUNNY     48  34  57 E7        30.33S
ROSEAU         SUNNY     46  37  71 E9        30.35R
WARROAD        SUNNY     43  36  75 NE9       30.36S
THIEF RVR FALL SUNNY     46  32  57 NE13      30.29F
CROOKSTON      SUNNY     48  32  53 E17       30.27F
FOSSTON        SUNNY     46  34  61 E9        30.25S
DETROIT LAKES  SUNNY     45  32  61 E15G23    30.19F
MOORHEAD       MOSUNNY   48  34  57 E17       30.21S
PARK RAPIDS    SUNNY     46  30  53 E10G22    30.20S
MAHNOMEN       FAIR      46  32  58 E15       30.22F
$$
MNZ006-009>011-018-025>026-301500-
   North Central Minnesota

CITY           SKY/WX    TMP DP  RH WIND       PRES   REMARKS
BAUDETTE       SUNNY     47  31  53 E6        30.34R
FLAG ISLAND    SUNNY     43  34  70 N6        30.36S
INTL FALLS     SUNNY     45  33  63 NE8       30.32S
WASKISH        SUNNY     46  34  61 NE12      30.30S
BIG FORK       SUNNY     46  30  53 NE7       30.27S
LONGVILLE      SUNNY     46  30  53 E5        30.22S
GRAND RAPIDS   SUNNY     45  28  53 E8        30.25F
CRANE LAKE     SUNNY     43  32  65 NE5       30.33S
ORR            SUNNY     43  28  56 NE5       30.27R
COOK           SUNNY     45  30  57 NE7       30.28S
WALKER         FAIR      44  32  62 NE13G18   30.23F
$$
MNZ012-019>021-037-301500-
   Northeast Minnesota

CITY           SKY/WX    TMP DP  RH WIND       PRES   REMARKS
DULUTH         MOSUNNY   44  31  60 E20G29    30.23F
ELY            SUNNY     43  30  61 NE8       30.28R
HIBBING        SUNNY     42  30  62 E12       30.25F
EVELETH        SUNNY     45  32  61 E9        30.26F
DULUTH HARBOR  SUNNY     41  36  81 NE18      30.26F
TWO HARBORS    SUNNY     48  36  61 E15       30.24F
SILVER BAY     SUNNY     45  34  65 NE14      30.26F
GRAND MARAIS     N/A     43  32  65 E9        30.29S
G MARAIS ARPRT SUNNY     43  25  49 N12G18    30.28R
$$
MNZ029>031-032-039>041-046>048-054>057-064-301500-
   West Central Minnesota

CITY           SKY/WX    TMP DP  RH WIND       PRES   REMARKS
FERGUS FALLS   SUNNY     45  30  57 E22       30.13F
WHEATON        CLOUDY    48  36  61 NE15G22   30.13S
MORRIS         MOSUNNY   43  34  70 NE17      30.09S
ALEXANDRIA     CLOUDY    44  31  60 NE20G32   30.12S
ELBOW LAKE     FAIR      45  32  60 NE20G26   30.13S
WADENA         SUNNY     45  30  57 NE14G22   30.17S
GLENWOOD       CLOUDY    43  34  70 NE22G28   30.10S
APPLETON       CLOUDY    45  34  65 NE18G24   30.07R
BENSON         CLOUDY    43  32  65 E16       30.08S
ORTONVILLE     CLOUDY    43  34  70 NE18      30.06F
MADISON        CLOUDY    43  34  70 NE17      30.06S
WILLMAR        FAIR      45  36  70 NE18      30.08R
$$
MNZ033>034-036-042>043-049>051-058-059-301500-
   Central Minnesota

CITY           SKY/WX    TMP DP  RH WIND       PRES   REMARKS
ST CLOUD       CLOUDY    42  32  67 NE10G21   30.12S
SAUK CENTRE    FAIR      42  32  66 NE20      30.11S
PAYNESVILLE    CLOUDY    42  32  69 NE16G22   30.10R
AITKIN         SUNNY     48  28  46 NE16G24   30.19R
PINE RIVER     SUNNY     45  32  61 NE13      30.23S
BRAINERD       SUNNY     45  31  58 NE17G25   30.18F
STAPLES        SUNNY     45  30  57 NE12G22   30.17S
LONG PRAIRIE   FAIR      43  32  65 NE14G21   30.13F
LITTLE FALLS   CLOUDY    43  32  65 NE13G21   30.15S
LITCHFIELD     PTSUNNY   43  36  75 NE13      30.09R
BUFFALO        PTSUNNY   43  33  68 NE14      30.11S
MAPLE LAKE     CLOUDY    43  36  75 NE15      30.11S
HUTCHINSON     SUNNY     44  36  75 NE17G24   30.07S
$$
MNZ037-044-045-052-053-301500-
   East Central Minnesota

CITY           SKY/WX    TMP DP  RH WIND       PRES   REMARKS
PRINCETON      CLOUDY    45  34  65 NE10G17   30.13F
MORA           MOSUNNY   45  32  61 E10G20    30.18S
CAMBRIDGE      CLOUDY    45  34  65 NE8G16    30.12S
RUSH CITY      MOSUNNY   44  33  64 NE12G20   30.16R
MOOSE LAKE     CLOUDY    43  32  65 E8G20     30.19R
HINCKLEY       FAIR      45  32  61 NE9       30.18S
CLOQUET        SUNNY     45  30  57 NE17G24   30.22S
MCGREGOR       SUNNY     45  32  61 NE10G22   30.21S
$$
MNZ071>073-080-081-089-090-097-098-301500-
   Southwest Minnesota

CITY           SKY/WX    TMP DP  RH WIND       PRES   REMARKS
MONTEVIDEO     PTSUNNY   41  36  81 E17G23    30.08R
GRANITE FALLS  CLOUDY    44  36  75 NE14G22   30.06R
CANBY          CLOUDY    44  38  80 NE12      30.06R
MARSHALL       CLOUDY    41  35  79 NE20      30.02S
REDWOOD FALLS  CLOUDY    43  34  70 NE13G20   30.03R
OLIVIA         PTSUNNY   41  34  75 NE18      30.05R
PIPESTONE      CLOUDY    43  37  81 E16G24    29.94F
WINDOM         CLOUDY    45  37  76 NE16G23   29.97S
WORTHINGTON    LGT RAIN  43  38  82 NE24G32   29.92F
JACKSON        CLOUDY    43  36  75 E20G31    29.95S
TRACY          CLOUDY    42  37  82 NE15G21   30.01S
SLAYTON        CLOUDY    40  37  90 NE15G21   29.97F
$$
MNZ065>067-074>077-082>085-091>093-301500-
   South Central Minnesota

CITY           SKY/WX    TMP DP  RH WIND       PRES   REMARKS
MANKATO        CLOUDY    46  37  71 E20       30.02R
NEW ULM        PTSUNNY   45  36  70 E13G23    30.01S
ST JAMES       CLOUDY    39  34  81 NE20      30.00S
FAIRMONT       CLOUDY    45  30  57 E18       29.95F
GLENCOE        CLOUDY    46  38  76 NE8       30.06S
FARIBAULT      CLOUDY    45  37  76 NE12G18   30.04S
OWATONNA       CLOUDY    45  37  76 E15G22    30.01F
WASECA         CLOUDY    45  37  76 E16G29    30.02S
ALBERT LEA     CLOUDY    45  39  81 E21       29.96F
$$
MNZ078>079-086>088-094>096-301500-
   Southeast Minnesota

CITY           SKY/WX    TMP DP  RH WIND       PRES   REMARKS
ROCHESTER      CLOUDY    43  39  86 E15       30.02S
RED WING       CLOUDY    46  34  61 E6        30.06F
STANTON        CLOUDY    46  38  73 NE13      30.04F
DODGE CENTER   CLOUDY    43  37  81 E17G23    30.02S
WINONA         CLOUDY    46  36  66 E6        30.07S
AUSTIN         DRZL/FOG  45  39  81 E17G25    29.97F VSB 1
PRESTON        CLOUDY    43  37  80 E15G21    30.01F
$$
ABBREVIATIONS USED IN REMARKS
   TC - TEMPERATURES IN CELSIUS
  WCI - WIND CHILL INDEX
   HX - HEAT INDEX
  VSB - VISIBILITY
$$




USA.gov is the U.S. government's official web portal to all federal, state and local government web resources and services.